www.pogodaiklimat.ru

Погода и климат >> Архив погоды >> Россия >> Краснодарский край >> Туапсе


АРХИВ ПОГОДЫ в Туапсе

Время (UTC), дата Ветер
(напр.,м/с)
 
Видим.   Явления Облачность Т
(С)
Тd
(С)
f
(%)
Тe
(С)
Тes
(С)
Комфортность P
(гПа)
Po
(гПа)
Тmin
(С)
Tmax
(С)
R
(мм)
S
(см)
03 17.02 СВ 6-14
{17}
10 км ясно -2.9 -15.6 37 -9 -9 очень
холодно
1026.6 1018.6 -4.0
06 17.02 СВ 3
{14}
20 км 1/1 1000 м
[Sc]
-0.7 -16.7 29 -4 -3 прохладно 1027.6 1019.7
09 17.02 СВ 2
{10}
20 км 3/3 1000 м
[Cu Sc]
+3.9 -14.7 24 +2 +7 по сезону 1028.5 1020.8
12 17.02 ЮЗ 1 20 км в посл. час крупа {ливн. осадки} 8/6 1000 м
[Cb cap Ac trans]
+5.3 -5.1 47 +5 +6 по сезону 1028.2 1020.5
15 17.02 Ю 3 20 км 8/6 1000 м
[Cb cap Ac trans]
+3.7 -3.9 58 0 0 прохладно 1029.0 1021.3 +7.7
18 17.02 ЮЗ 4
{13}
10 км 9/8 1000 м
[Cb cap Ac trans]
+2.9 -3.7 62 -1 -1 по сезону 1030.2 1022.4
21 17.02 Ю 4-10
{13}
10 км 8/6 1000 м
[Cb cap Ac trans]
+2.6 -4.8 58 -2 -2 по сезону 1030.3 1022.5
00 18.02 ЮВ 5
{13}
10 км 9/8 1000 м
[Cb cap Ac trans]
+2.6 -5.3 56 -2 -2 по сезону 1029.4 1021.6
03 18.02 ЮВ 5-10
{12}
10 км 8/6 1000 м
[Cb cap Ac trans]
+2.7 -4.1 61 -2 -2 по сезону 1028.5 1020.7 +2.4
06 18.02 ЮВ 5
{10}
20 км 10/3 1000 м
[Sc Ci fib]
+3.3 -6.1 50 -1 -1 по сезону 1028.2 1020.5 +2.3
09 18.02 ЮВ 4-10
{11}
20 км 10/6 1000 м
[Cu Sc Ac trans Ci fib]
+4.2 -3.4 58 0 +1 по сезону 1027.7 1020.0
12 18.02 ЮВ 4
{12}
20 км 10/1 1000 м
[Cu med, cong Cs]
+5.3 -4.2 50 +2 +4 по сезону 1026.0 1018.3
15 18.02 Ю 3 20 км 6/3 1000 м
[Sc Ac trans Ci fib]
+4.9 -5.0 49 +2 +2 по сезону 1026.1 1018.4 +5.8
18 18.02 В 2 10 км 3/0
[Ac trans]
+4.1 -5.7 49 +2 +2 по сезону 1026.6 1018.9
21 18.02 В 2 10 км ясно +4.1 -5.1 51 +2 +2 по сезону 1027.4 1019.7
00 19.02 ЮВ 3 10 км ясно +5.6 -6.6 41 +3 +3 по сезону 1027.5 1019.8
03 19.02 ЮВ 4
{10}
10 км 10/0
[Ac trans Ci fib]
+6.6 -4.0 47 +4 +4 по сезону 1028.5 1020.9 +3.9
06 19.02 ЮВ 3 20 км 10/0
[Ac trans Ci sp]
+7.4 -4.8 42 +5 +6 тепло 1030.1 1022.4
09 19.02 ЮВ 4 20 км 8/0
[Ac trans Ci sp]
+8.8 -2.6 45 +6 +10 тепло 1030.2 1022.6
12 19.02 Ю 2 20 км 10/0
[Cc]
+9.1 -1.0 49 +8 +11 тепло 1029.4 1021.8
15 19.02 ЮЗ 1 20 км 10/0
[Ac trans Ci sp]
+6.9 +1.8 70 +6 +6 по сезону 1029.1 1021.4 +9.9
18 19.02 С 1 10 км 10/6 1000 м
[Sc Ac As]
+6.3 +1.2 70 +5 +5 тепло 1028.5 1020.8
21 19.02 СВ 1 10 км 8/6 1000 м
[Sc Ac trans Ci sp]
+5.7 -5.0 46 +5 +5 тепло 1027.8 1020.1
00 20.02 С 1 10 км 3/3 1000 м
[Sc]
+5.4 -8.1 37 +5 +5 тепло 1027.1 1019.4
03 20.02 СВ 2 10 км 4/4 1000 м
[Cu Sc]
+3.3 -7.1 46 +1 +1 по сезону 1026.1 1018.3 +3.3
06 20.02 СВ 1 20 км 9/0
[Ci]
+6.8 -6.5 38 +7 +9 тепло 1025.5 1017.9 +2.6
09 20.02 Ю 1 20 км 4/0
[Ci fib]
+12.7 -6.1 26 +13 +21 тепло 1024.1 1016.6
12 20.02 ЮВ 1 20 км 10/0
[Ci sp]
+10.9 -8.0 26 +11 +15 тепло 1021.8 1014.3
15 20.02 С 1 20 км 10/0
[Ci]
+10.5 -11.1 21 +11 +11 тепло 1019.7 1012.2 +12.9
18 20.02 СВ 1 10 км 10/0
[Ci fib]
+6.8 -6.8 37 +7 +7 тепло 1019.0 1011.4
21 20.02 СВ 2 10 км 10/6 1000 м
[Sc Ci fib]
+5.4 -6.0 44 +4 +4 по сезону 1017.9 1010.3
00 21.02 ЮЗ 2 10 км 8/3 1000 м
[Sc Ci fib]
+7.8 -5.2 39 +7 +7 тепло 1017.6 1010.0
03 21.02 ЮЗ 1 10 км 10/10 1000 м
[Sc]
+6.7 +1.8 71 +6 +6 тепло 1017.5 1010.0 +5.2
06 21.02 ЮВ 4 10 км слабый ливневой дождь 10/10 600 м
[Cb cap]
+6.5 +4.3 86 +3 +3 по сезону 1018.4 1010.9
09 21.02 ЮВ 5-11
{11}
10 км слабый ливневой дождь 10/10 600 м
[Cb cap]
+6.5 +2.8 77 +2 +2 по сезону 1018.1 1010.5
12 21.02 ЮВ 4
{13}
20 км {ливн. осадки} 10/6 1000 м
[Cb cap Ac trans Ci]
+6.7 +2.2 73 +3 +4 по сезону 1016.4 1008.8
15 21.02 ЮЗ 5 20 км 10/8 1000 м
[Cb cap Ac trans Ci]
+6.3 +2.9 79 +2 +2 по сезону 1016.2 1008.6 +7.4 5
18 21.02 ЮЗ 3-10
{13}
10 км {ливн. осадки} 10/6 1000 м
[Cb cap Ac trans Ci]
+5.6 +3.4 86 +2 +2 по сезону 1016.2 1008.6
21 21.02 ЮЗ 3
{12}
4000 м слабый ливневой дождь 10/10 600 м
[Cb cap]
+5.6 +3.4 86 +2 +2 по сезону 1015.8 1008.2
00 22.02 ЮВ 5-10
{12}
10 км {ливн. осадки} 10/8 1000 м
[Cb cap Ci]
+6.1 +1.9 74 +2 +2 по сезону 1015.4 1007.9
03 22.02 ЮВ 6-13
{13}
10 км 8/4 1000 м
[Cb cap Ci fib]
+6.8 +1.2 67 +3 +3 по сезону 1014.1 1006.6 +4.8 1
06 22.02 ЮВ 9-16
{20}
20 км 10/6 1000 м
[Cb cap Ac trans Ci fib]
+7.0 +4.3 83 +2 +2 по сезону 1013.3 1005.7
09 22.02 Ю 8-19
{20}
20 км 10/8 1000 м
[Cb cap Ac trans Ci fib]
+7.5 +4.4 81 +3 +3 по сезону 1011.7 1004.2
12 22.02 ЮЗ 6-12
{19}
10 км слабый ливневой дождь 10/10 600 м
[Cb cap]
+6.8 +5.1 89 +2 +2 по сезону 1011.3 1003.8
15 22.02 ЮЗ 8-14
{15}
4000 м слабый ливневой дождь 10/10 600 м
[Cb cap]
+5.9 +4.1 88 0 0 прохладно 1010.7 1003.1 +7.5 6
18 22.02 З 4-11
{14}
4000 м слабый ливневой дождь 10/10 600 м
[Cb cap]
+5.3 +3.9 91 +1 +1 по сезону 1012.7 1005.1
21 22.02 С 1
{11}
10 км {ливн. осадки} 10/8 1000 м
[Cb cap Ac trans Ci fib]
+5.2 +2.2 81 +4 +4 по сезону 1015.8 1008.2
00 23.02 ЮВ 4 н/о н/о +5.4 +2.2 80 +1 +1 по сезону 1016.9 1009.3
03 23.02 ЮЗ 5-10
{11}
10 км 9/6 1000 м
[Cb cap Ac trans]
+5.8 +2.6 80 +1 +1 по сезону 1017.8 1010.2 +4.6 8
06 23.02 ЮВ 7-12
{15}
20 км 10/8 1000 м
[Cb cap Ac trans Ci sp]
+5.5 +2.0 78 0 0 по сезону 1018.5 1010.9
09 23.02 ЮВ 9-18
{20}
20 км 10/8 1000 м
[Cb cap Ac As]
+6.8 +2.7 75 +1 +1 по сезону 1017.6 1010.0
12 23.02 ЮВ 9-20
{22}
20 км {ливн. осадки} 10/9 1000 м
[Cb cap Ac As]
+7.4 +3.0 74 +2 +2 по сезону 1015.4 1007.9
15 23.02 ЮВ 9-17
{20}
20 км в посл. час ливневой дождь 10/9 1000 м
[Cb cap Ac As]
+7.8 +3.5 74 +3 +3 по сезону 1014.6 1007.1 +7.8
18 23.02 ЮВ 7-14
{18}
4000 м слабый ливневой дождь 10/10 600 м
[Cb cap]
+8.3 +2.5 67 +4 +4 по сезону 1014.5 1007.0
21 23.02 Ю 6-18
{21}
4000 м слабый ливневой дождь 10/10 600 м
[Cb cap]
+8.5 +2.4 65 +5 +5 тепло 1015.7 1008.2
00 24.02 ЮВ 7-15
{22}
10 км в посл. час ливневой дождь 10/10 600 м
[Cb cap]
+9.4 +1.7 59 +6 +6 тепло 1015.2 1007.7

 

Местоположение метеостанции Туапсе (Краснодарский край, Россия): широта 44.10 долгота 39.07 высота над уровнем моря 62 м.

В архиве по умолчанию представлена погода в Туапсе за последнюю неделю. Архивные данные за месяц целиком и за предыдущие месяцы, начиная с января 2011 года, Вы можете получить, выбрав интересующий диапазон дат из раскрывающегося списка и нажав кнопку "Ввод!".

Внимание! Время в таблицах - всемирное. Для получения местного времени необходимо прибавить поправку, которая в Туапсе равна 3 ч.

Смотрите также архив погоды в соседних городах и на ближайших метеорологических станциях:

Погода в Горном (Краснодарский край, Россия) (26 км)
Погода в Джубге (Краснодарский край, Россия) (38 км)
Погода в Горячем Ключе (Краснодарский край, Россия) (59 км)
Погода в Сочи (Краснодарский край, Россия) (81 км)
Погода в Гузерипле (Адыгея, Россия) (85 км)
Погода в Шунтуке (Адыгея, Россия) (93 км)
Погода в Геленджике (Краснодарский край, Россия) (95 км)
Погода в Кепше (Краснодарский край, Россия) (95 км)
Погода в Белореченске (Краснодарский край, Россия) (98 км)
Погода в Майкопе (Адыгея, Россия) (99 км)

Пояснения к столбцам:

Ветер - указаны скорость ветра в м/с - средняя за 10 мин, порывы в срок и между сроками (в фигурных скобках) и направление, откуда дует ветер: С - северный, СВ - северо-восточный, В - восточный, ЮВ - юго-восточный, Ю - южный, ЮЗ - юго-западный, З - западный, СЗ - северо-западный.
Видимость - горизонтальная дальность видимости в метрах или километрах. При видимости от 1 до 10 км при отсутствии осадков обычно наблюдается дымка, при ухудшении видимости до 1 км и менее - туман. В сухую погоду видимость может ухудшаться дымом, пылью или мглою.
Явления - указаны атмосферные явления, наблюдавшиеся в срок или в последний час перед сроком; фигурными скобками обозначены явления, наблюдавшиеся между сроками (за 1-3 часа до срока); квадратными скобками обозначены град или гололедные отложения с указанием их диаметра в мм.
Облачность - указаны через наклонную черту общая и нижняя облачность в баллах и высота нижней границы облаков в метрах; квадратными скобками обозначены формы облаков: Ci - перистые, Cs - перисто-слоистые, Cc - перисто-кучевые, Ac - высококучевые, As - высокослоистые, Sc - слоисто-кучевые, Ns - слоисто-дождевые, Cu - кучевые, Cb - кучево-дождевые. Подробнее классификацию облаков см. в Атласе облаков (PDF).
T - Температура воздуха - температура, измеренная на высоте 2 м над землей.
Td - Температура точки росы - температура, при понижении до которой содержащийся в воздухе водяной пар достигнет насыщения.
f - Относительная влажность воздуха - влажноcть воздуха, измеренная на высоте 2 м над землей.
Te - Эффективная температура - температура, которую ощущает одетый по сезону человек в тени. Характеристика душности погоды. При расчете учитывается влияние влажности воздуха и скорости ветра на теплоощущения человека.
Tes - Эффективная температура на солнце - температура, которую ощущает человек, с поправкой на солнечный нагрев. Характеристика знойности погоды. Зависит от высоты солнца над горизонтом, облачности и скорости ветра. Ночью, в пасмурную погоду, а также при ветре 12 м/с и более поправка равна нулю.
P - Атмосферное давление - приведенное к уровню моря атмосферное давление.
Po - Атмосферное давление - измеренное на уровне метеостанции атмосферное давление.
Tmin - Минимальная температура - минимум температуры воздуха на высоте 2 м над землей.
Tmax - Максимальная температура - максимум температуры воздуха на высоте 2 м над землей.
R - Количество осадков - Количество выпавших осадков, мм. При наведении курсора мыши на число - период времени, за который выпало указанное количество осадков.
S - Снежный покров - Высота снежного покрова, см. При наведении курсора мыши на число - состояние снежного покрова и степень покрытия местности в баллах.